When you browse on this site, cookies collect data to enhance your experience and personalize the content and advertising you see.
Visit our Privacy Policy to learn more. By continuing to use the site, you agree to this use of cookies and data.
  • In Austria
  • List of Countries
  • For 7 days
  • Water Temperature
  • Weather Map
  • News
  • Weather Widgets
  • user-avatar
    Login

    Hourly Weather Garoua

    Today, 5 June, Friday

    Time Temperature Precipitation Wind Pressure Humidity
    00:00 +27°C° 0.1 mm 3 mps 742 mmHg 81%
    01:00 +27°C° 0 mm 2 mps 742 mmHg 76%
    02:00 +27°C° 0 mm 1 mps 742 mmHg 78%
    03:00 +27°C° 0 mm 1 mps 742 mmHg 80%
    04:00 +25°C° 0 mm 0 mps 742 mmHg 81%
    05:00 +27°C° 0 mm 1 mps 742 mmHg 80%
    06:00 +28°C° 0 mm 1 mps 743 mmHg 78%
    07:00 +28°C° 0 mm 2 mps 743 mmHg 75%
    08:00 +30°C° 0 mm 2 mps 743 mmHg 67%
    09:00 +32°C° 0 mm 2 mps 743 mmHg 59%
    10:00 +35°C° 0 mm 3 mps 743 mmHg 51%
    11:00 +37°C° 0 mm 2 mps 743 mmHg 46%
    12:00 +39°C° 0 mm 2 mps 742 mmHg 41%
    13:00 +39°C° 0 mm 2 mps 742 mmHg 37%
    14:00 +39°C° 0 mm 2 mps 741 mmHg 37%
    15:00 +39°C° 0 mm 2 mps 741 mmHg 36%
    16:00 +39°C° 0 mm 3 mps 740 mmHg 36%
    17:00 +36°C° 1 mm 3 mps 741 mmHg 48%
    18:00 +32°C° 1 mm 4 mps 741 mmHg 60%
    19:00 +28°C° 1 mm 4 mps 742 mmHg 72%
    20:00 +28°C° 0.8 mm 4 mps 743 mmHg 74%
    21:00 +28°C° 0.8 mm 3 mps 744 mmHg 76%
    22:00 +28°C° 0.8 mm 2 mps 745 mmHg 78%
    23:00 +27°C° 0.2 mm 2 mps 744 mmHg 79%

    Tomorrow, 6 June, Saturday

    Time Temperature Precipitation Wind Pressure Humidity
    00:00 +27°C° 0.2 mm 1 mps 744 mmHg 80%
    01:00 +27°C° 0.2 mm 1 mps 744 mmHg 81%
    02:00 +27°C° 0 mm 1 mps 743 mmHg 80%
    03:00 +26°C° 0 mm 2 mps 743 mmHg 80%
    04:00 +26°C° 0 mm 2 mps 742 mmHg 79%
    05:00 +26°C° 0 mm 1 mps 743 mmHg 78%
    06:00 +27°C° 0 mm 1 mps 743 mmHg 77%
    07:00 +25°C° 0 mm 0 mps 744 mmHg 76%
    08:00 +29°C° 0 mm 1 mps 744 mmHg 68%
    09:00 +31°C° 0 mm 2 mps 744 mmHg 60%
    10:00 +34°C° 0 mm 3 mps 744 mmHg 51%
    11:00 +36°C° 0 mm 3 mps 743 mmHg 46%
    12:00 +38°C° 0 mm 2 mps 742 mmHg 40%
    13:00 +40°C° 0 mm 2 mps 742 mmHg 35%
    14:00 +40°C° 0 mm 2 mps 741 mmHg 34%
    15:00 +40°C° 0 mm 1 mps 741 mmHg 32%
    16:00 +40°C° 0 mm 1 mps 740 mmHg 31%
    17:00 +39°C° 0 mm 1 mps 740 mmHg 36%
    18:00 +36°C° 0 mm 1 mps 740 mmHg 41%
    19:00 +34°C° 0 mm 1 mps 741 mmHg 45%
    20:00 +33°C° 0 mm 1 mps 741 mmHg 49%
    21:00 +32°C° 0 mm 1 mps 741 mmHg 52%
    22:00 +31°C° 0 mm 1 mps 742 mmHg 56%
    23:00 +31°C° 0 mm 1 mps 742 mmHg 57%

    Day after tomorrow, 7 June, Sunday

    Time Temperature Precipitation Wind Pressure Humidity
    00:00 +30°C° 0 mm 1 mps 741 mmHg 59%
    01:00 +28°C° 0 mm 0 mps 741 mmHg 61%
    02:00 +27°C° 0 mm 0 mps 741 mmHg 62%
    03:00 +29°C° 0 mm 1 mps 741 mmHg 63%
    04:00 +29°C° 0 mm 1 mps 741 mmHg 64%
    05:00 +29°C° 0 mm 1 mps 741 mmHg 65%
    06:00 +29°C° 0 mm 1 mps 742 mmHg 66%
    07:00 +30°C° 0 mm 1 mps 742 mmHg 68%
    08:00 +32°C° 0 mm 2 mps 742 mmHg 62%
    09:00 +34°C° 0 mm 3 mps 742 mmHg 56%
    10:00 +36°C° 0 mm 3 mps 742 mmHg 50%
    11:00 +38°C° 0 mm 3 mps 742 mmHg 46%
    12:00 +40°C° 0 mm 4 mps 741 mmHg 43%
    13:00 +41°C° 0 mm 4 mps 741 mmHg 39%
    14:00 +41°C° 0 mm 4 mps 740 mmHg 39%
    15:00 +41°C° 0 mm 4 mps 739 mmHg 39%
    16:00 +41°C° 0 mm 4 mps 739 mmHg 39%
    17:00 +36°C° 0.4 mm 4 mps 739 mmHg 49%
    18:00 +33°C° 0.4 mm 4 mps 740 mmHg 58%
    19:00 +29°C° 0.4 mm 5 mps 740 mmHg 67%
    20:00 +28°C° 1.2 mm 4 mps 741 mmHg 73%
    21:00 +28°C° 1.2 mm 4 mps 741 mmHg 78%
    22:00 +27°C° 1.2 mm 4 mps 742 mmHg 84%
    23:00 +27°C° 0.1 mm 3 mps 742 mmHg 82%

    8 June, Monday

    Time Temperature Precipitation Wind Pressure Humidity
    00:00 +27°C° 0.1 mm 2 mps 741 mmHg 81%
    01:00 +27°C° 0.1 mm 1 mps 741 mmHg 80%
    02:00 +26°C° 0.5 mm 1 mps 741 mmHg 81%
    03:00 +26°C° 0.5 mm 2 mps 741 mmHg 83%
    04:00 +26°C° 0.5 mm 2 mps 740 mmHg 85%
    05:00 +26°C° 0 mm 3 mps 741 mmHg 83%
    06:00 +26°C° 0 mm 3 mps 741 mmHg 82%
    07:00 +26°C° 0 mm 4 mps 741 mmHg 81%
    08:00 +28°C° 0 mm 4 mps 741 mmHg 73%
    09:00 +32°C° 0 mm 4 mps 742 mmHg 65%
    10:00 +34°C° 0 mm 5 mps 742 mmHg 57%
    11:00 +35°C° 0 mm 4 mps 741 mmHg 52%
    12:00 +37°C° 0 mm 4 mps 741 mmHg 46%
    13:00 +40°C° 0 mm 4 mps 740 mmHg 41%
    14:00 +40°C° 0 mm 4 mps 740 mmHg 40%
    15:00 +39°C° 0 mm 3 mps 739 mmHg 40%
    16:00 +39°C° 0 mm 3 mps 739 mmHg 39%
    17:00 +37°C° 0 mm 3 mps 739 mmHg 44%
    18:00 +35°C° 0 mm 2 mps 739 mmHg 49%
    19:00 +34°C° 0 mm 2 mps 739 mmHg 53%
    20:00 +32°C° 0 mm 2 mps 739 mmHg 56%
    21:00 +31°C° 0 mm 2 mps 740 mmHg 60%
    22:00 +30°C° 0 mm 2 mps 740 mmHg 63%
    23:00 +30°C° 0 mm 2 mps 740 mmHg 65%

    9 June, Tuesday

    Time Temperature Precipitation Wind Pressure Humidity
    00:00 +29°C° 0 mm 2 mps 740 mmHg 68%
    01:00 +29°C° 0 mm 2 mps 740 mmHg 71%
    02:00 +28°C° 1.1 mm 2 mps 740 mmHg 74%
    03:00 +28°C° 1.1 mm 2 mps 740 mmHg 78%
    04:00 +28°C° 1.1 mm 2 mps 740 mmHg 82%
    05:00 +27°C° 5.4 mm 3 mps 741 mmHg 85%
    06:00 +27°C° 5.4 mm 3 mps 741 mmHg 87%
    07:00 +26°C° 5.4 mm 3 mps 741 mmHg 90%
    08:00 +27°C° 0 mm 3 mps 741 mmHg 85%
    09:00 +27°C° 0 mm 3 mps 742 mmHg 80%
    10:00 +27°C° 0 mm 2 mps 742 mmHg 76%
    11:00 +28°C° 0 mm 2 mps 742 mmHg 69%
    12:00 +30°C° 0 mm 2 mps 741 mmHg 62%
    13:00 +31°C° 0 mm 2 mps 740 mmHg 56%
    14:00 +32°C° 0 mm 2 mps 740 mmHg 53%
    15:00 +34°C° 0 mm 2 mps 740 mmHg 51%
    16:00 +34°C° 0 mm 2 mps 739 mmHg 48%
    17:00 +32°C° 0 mm 2 mps 740 mmHg 55%
    18:00 +30°C° 0 mm 2 mps 740 mmHg 61%
    19:00 +29°C° 0 mm 2 mps 740 mmHg 67%
    20:00 +28°C° 0 mm 2 mps 740 mmHg 68%
    21:00 +28°C° 0 mm 2 mps 741 mmHg 70%
    22:00 +27°C° 0 mm 2 mps 742 mmHg 71%
    23:00 +27°C° 0 mm 2 mps 741 mmHg 72%

    10 June, Wednesday

    Time Temperature Precipitation Wind Pressure Humidity
    00:00 +27°C° 0 mm 2 mps 741 mmHg 73%
    01:00 +26°C° 0 mm 2 mps 741 mmHg 74%
    02:00 +26°C° 0 mm 2 mps 741 mmHg 75%
    03:00 +26°C° 0 mm 2 mps 741 mmHg 76%
    04:00 +26°C° 0 mm 2 mps 741 mmHg 77%
    05:00 +26°C° 0.2 mm 2 mps 741 mmHg 78%
    06:00 +26°C° 0.2 mm 3 mps 742 mmHg 79%
    07:00 +26°C° 0.2 mm 3 mps 742 mmHg 80%
    08:00 +28°C° 0 mm 3 mps 742 mmHg 74%
    09:00 +30°C° 0 mm 3 mps 742 mmHg 68%
    10:00 +31°C° 0 mm 3 mps 743 mmHg 62%
    11:00 +34°C° 0 mm 3 mps 742 mmHg 56%
    12:00 +35°C° 0 mm 3 mps 742 mmHg 51%
    13:00 +37°C° 0 mm 2 mps 742 mmHg 46%
    14:00 +37°C° 0 mm 2 mps 741 mmHg 44%
    15:00 +37°C° 0 mm 2 mps 741 mmHg 43%
    16:00 +37°C° 0 mm 1 mps 741 mmHg 41%
    17:00 +35°C° 0 mm 1 mps 741 mmHg 47%
    18:00 +33°C° 0 mm 1 mps 741 mmHg 52%
    19:00 +31°C° 0 mm 1 mps 741 mmHg 58%
    20:00 +30°C° 0 mm 2 mps 741 mmHg 62%
    21:00 +30°C° 0 mm 2 mps 741 mmHg 67%
    22:00 +29°C° 0 mm 2 mps 741 mmHg 72%
    23:00 +28°C° 0 mm 2 mps 741 mmHg 74%
    Show more